This is the latest recevied weather packets stored in our database for station/object W8CEN. If no packets are shown the sender has not sent any weather packets the latest 10 day(s).
| Time | Temp. | Humidity | Pressure | Rain* | Wind** | Luminosity | Snow |
|---|---|---|---|---|---|---|---|
| 1777645271 | 6.11° C | 93% | 992.2 hPa | 1.27 mm | - | 65 W/m² | - |
| 1777644967 | 6.11° C | 93% | 992 hPa | 1.78 mm | - | 67 W/m² | - |
| 1777644665 | 5.56° C | 92% | 991.9 hPa | 1.78 mm | - | 68 W/m² | - |
| 1777644361 | 5.56° C | 92% | 991.8 hPa | 1.27 mm | - | 79 W/m² | - |
| 1777644057 | 5.56° C | 92% | 991.7 hPa | 0 mm | - | 84 W/m² | - |
| 1777643754 | 5.56° C | 92% | 991.9 hPa | 0 mm | - | 73 W/m² | - |
| 1777643452 | 5.56° C | 92% | 991.8 hPa | 0 mm | - | 82 W/m² | - |
| 1777643148 | 5.56° C | 92% | 991.7 hPa | 0 mm | - | 63 W/m² | - |
| 1777642845 | 5.56° C | 92% | 991.8 hPa | 0 mm | - | 67 W/m² | - |
| 1777642542 | 5.56° C | 91% | 991.6 hPa | 0 mm | - | 70 W/m² | - |
| 1777642238 | 5.56° C | 92% | 991.6 hPa | 0 mm | - | 88 W/m² | - |
| 1777641936 | 5.56° C | 92% | 991.6 hPa | 0 mm | - | 92 W/m² | - |
| 1777641631 | 5.56° C | 93% | 991.6 hPa | 1.78 mm | - | 86 W/m² | - |
| 1777641326 | 5.56° C | 92% | 991.8 hPa | 1.78 mm | - | 110 W/m² | - |
| 1777641022 | 5.56° C | 93% | 991.8 hPa | 0 mm | - | 77 W/m² | - |
| 1777640718 | 5.56° C | 93% | 991.7 hPa | 1.27 mm | - | 154 W/m² | - |
| 1777640415 | 5.56° C | 94% | 991.6 hPa | 3.05 mm | - | 89 W/m² | - |
| 1777640113 | 5.56° C | 94% | 991.7 hPa | 1.78 mm | - | 54 W/m² | - |
| 1777639809 | 5.56° C | 94% | 991.9 hPa | 0 mm | - | 66 W/m² | - |
| 1777639506 | 5° C | 93% | 992.1 hPa | 1.78 mm | - | 59 W/m² | - |
| 1777639203 | 5° C | 93% | 992 hPa | 3.05 mm | - | 33 W/m² | - |
| 1777638899 | 5° C | 94% | 991.9 hPa | 1.27 mm | - | 29 W/m² | - |
| 1777638594 | 5° C | 93% | 991.9 hPa | 0 mm | - | 39 W/m² | - |
| 1777638292 | 5° C | 93% | 992 hPa | 1.78 mm | - | 32 W/m² | - |
| 1777637988 | 5° C | 94% | 992.1 hPa | 1.78 mm | - | 25 W/m² | - |
* Rain latest hour (hover to see other rain measurements)
** Current wind speed in m/s (hover to see current wind gust speed)